Powrót do katalogu

ONEWEB-0528

AktywnyŁącznośćPO
NORAD 54643·PAYLOAD·🇬🇧 United Kingdom

Wystrzelony Dec 8, 2022 z Cape Canaveral Space Force Station

Loading…

Następne Przeloty (najbliższe 24 godziny)

TLE

ŚwieżeSource: CelesTrak SupGP

Epoka: Sep 14, 2026, 14:11 UTC

1 54643C 22166B   26257.59145833 -.00002515  00000+0 -60961-2 0  2574
2 54643  87.9277 226.2011 0002117  77.0875   1.5978 13.21828984    10

Śledź ONEWEB-0528 w czasie rzeczywistym z AllMySat

Download on the App Store